Volver al catálogo

STARLINK-32569

ActivoComunicacionesVLEO
NORAD 61867·PAYLOAD·🇺🇸 United States

Lanzado Nov 7, 2024 desde Cape Canaveral Space Force Station

Loading…

Próximos Pases (próximas 24 horas)

TLE

ActualizadoSource: CelesTrak SupGP

Época: Sep 15, 2026, 03:41 UTC

1 61867C 24202Y   26258.15395833 -.00045570  00000+0 -16507-2 0  2589
2 61867  43.0002 248.3987 0001309 269.9516 284.6625 15.27598154    12

Sigue STARLINK-32569 en tiempo real con AllMySat

Download on the App Store